Flag for Austria Weather past 2 weeks in Neunkirchen, Lower Austria, Austria

Now
38 °F

Overcast.


Feels Like: 38 °F
Forecast: 33 / 50 °F
Wind: 1 mph from West

Location: Eisenstadt

Current Time: Feb 28, 2015 at 1:39:06 AM

Latest Report: Feb 28, 2015 at 1:00 AM


Visibility: 6 mi

Pressure: 30.03 "Hg

Humidity: 86%

Dew point: 35 °F

Location of NeunkirchenLocation

Historic Weather in Neunkirchen — Graph

°F

Neunkirchen temperature yesterday

Maximum temperature yesterday: 50 °F (at 1:00 PM)
Minimum temperature yesterday: 31 °F (at 6:00 AM)
Average temperature yesterday: 40 °F

Past Weeks' High & Low Weather Summary

 TemperatureHumidityPressure
High57 °F (Feb 21, 3:00 PM)100% (Feb 20, 10:00 AM)30.78 "Hg (Feb 20, 10:00 AM)
Low27 °F (Feb 20, 5:00 AM)30% (Feb 21, 12:00 PM)29.57 "Hg (Feb 21, 3:00 PM)
Average38 °F77%30.09 "Hg
* Reported Midnight between Feb 12 and Feb 13 — Midnight between Feb 27 and Feb 28, Neunkirchen, Weather by CustomWeather, © 2015

Note: Actual official high and low records may vary slightly from our data, if they occured in-between our weather recording intervals... More about our weather records

Advertising

Neunkirchen weather history for previous 24 hours

 ConditionsComfort  
Time TempWeatherWind HumidityBarometerVisibility
12:00 AM
Sat, Feb 28
38 °FChilly.1 mph87%30.03 "HgN/A
11:00 PM
Fri, Feb 27
36 °FChilly.2 mph89%30.03 "HgN/A
10:00 PM36 °FClear.2 mph88%30.01 "Hg7 mi
9:00 PM38 °FChilly.3 mph85%29.99 "HgN/A
8:00 PM39 °FChilly.1 mph82%29.96 "HgN/A
7:00 PM41 °FClear.2 mph80%29.95 "Hg6 mi
6:00 PM43 °FQuite cool.5 mph76%29.92 "HgN/A
5:00 PM46 °FCool.6 mph69%29.90 "HgN/A
4:00 PM48 °FSunny.8 mph65%29.88 "Hg7 mi
3:00 PM49 °FCool.8 mph58%29.88 "HgN/A
2:00 PM50 °FCool.8 mph59%29.87 "HgN/A
1:00 PM50 °FSunny.7 mph58%29.88 "Hg6 mi
12:00 PM49 °FCool.8 mph62%29.91 "HgN/A
11:00 AM47 °FCool.7 mph64%29.92 "HgN/A
10:00 AM40 °FFog.3 mph78%29.93 "Hg2 mi
9:00 AM36 °FChilly.2 mph85%29.94 "HgN/A
8:00 AM34 °FChilly.No wind90%29.96 "HgN/A
7:00 AM31 °FFog.1 mph94%29.96 "Hg2 mi
6:00 AM31 °FClear.2 mph94%29.96 "Hg9 mi
5:00 AM31 °FClear.2 mph94%29.96 "Hg9 mi
2:00 AM32 °FChilly.2 mph91%30.03 "HgN/A
1:00 AM33 °FClear.3 mph89%30.04 "Hg9 mi
Weather by CustomWeather, © 2015

See weather overviewHow to use our weather pages